GW4487 Weather Reports


time (UTC)temp
C
wind
direction
speed
KPH
gust
KPH
rain 1hr
cm
rain 24hr
cm
rain mn
cm
humidity
%
barometer
mb
20260507085559 15 108 0.0 0.0 0.00 0.00 0.00 80 1014.7
20260507085055 15 108 0.0 0.0 0.00 0.00 0.00 80 1014.7
20260507084552 15 108 0.0 0.0 0.00 0.00 0.00 80 1014.7
20260507084049 15 108 0.0 0.0 0.00 0.00 0.00 80 1015.1
20260507083545 15 108 0.0 0.0 0.00 0.00 0.00 79 1014.7
20260507083042 15 108 0.0 0.0 0.00 0.00 0.00 79 1015.1
20260507082538 15 108 0.0 0.0 0.00 0.00 0.00 79 1015.1
20260507082035 15 108 0.0 1.6 0.00 0.00 0.00 78 1015.1
20260507081531 15 108 1.6 1.6 0.00 0.00 0.00 79 1014.7
20260507081028 15 109 0.0 0.0 0.00 0.00 0.00 79 1015.1
20260507080524 15 106 1.6 1.6 0.00 0.00 0.00 79 1015.1
20260507080021 15 111 0.0 0.0 0.00 0.00 0.00 79 1015.1
20260507075516 15 82 0.0 0.0 0.00 0.00 0.00 79 1015.1
20260507075013 15 81 1.6 3.2 0.00 0.00 0.00 78 1015.1
20260507074509 15 134 0.0 0.0 0.00 0.00 0.00 79 1014.7
20260507074008 15 132 0.0 1.6 0.00 0.00 0.00 78 1015.1
20260507073504 16 126 0.0 0.0 0.00 0.00 0.00 78 1015.1
20260507073000 16 90 1.6 1.6 0.00 0.00 0.00 77 1015.1
20260507072458 16 101 1.6 3.2 0.00 0.00 0.00 77 1015.1
20260507071955 16 142 0.0 0.0 0.00 0.00 0.00 77 1015.1
20260507071452 16 142 1.6 1.6 0.00 0.00 0.00 77 1015.1
20260507070948 16 142 0.0 0.0 0.00 0.00 0.00 77 1015.1
20260507070446 16 142 0.0 0.0 0.00 0.00 0.00 77 1015.1
20260507065942 16 142 0.0 1.6 0.00 0.00 0.00 77 1015.1
20260507065438 16 143 0.0 1.6 0.00 0.00 0.00 77 1015.1
20260507064931 16 142 0.0 1.6 0.00 0.00 0.00 77 1015.1
20260507064429 16 143 0.0 1.6 0.00 0.00 0.00 76 1015.1
20260507063926 16 143 0.0 0.0 0.00 0.00 0.00 76 1015.1
20260507063423 16 143 0.0 1.6 0.00 0.00 0.00 76 1015.1
20260507062920 16 143 0.0 0.0 0.00 0.00 0.00 76 1015.4
20260507062417 16 142 0.0 0.0 0.00 0.00 0.00 75 1015.4
20260507061914 16 143 0.0 0.0 0.00 0.00 0.00 75 1015.1
20260507061413 16 143 0.0 0.0 0.00 0.00 0.00 75 1015.1
20260507060911 16 142 0.0 0.0 0.00 0.00 0.00 75 1015.4
20260507060407 16 143 0.0 0.0 0.00 0.00 0.00 75 1015.1
20260507055904 16 146 1.6 1.6 0.00 0.00 0.00 74 1015.4
20260507055358 16 149 0.0 0.0 0.00 0.00 0.00 74 1015.4
20260507054850 16 149 0.0 1.6 0.00 0.00 0.00 74 1015.1
20260507054346 17 200 0.0 0.0 0.00 0.00 0.00 73 1015.1
20260507053844 17 171 0.0 0.0 0.00 0.00 0.00 71 1015.4
20260507053341 17 171 0.0 1.6 0.00 0.00 0.00 70 1015.4
20260507052840 17 171 0.0 0.0 0.00 0.00 0.00 70 1015.1
20260507052336 17 155 0.0 1.6 0.00 0.00 0.00 73 1015.1
20260507051834 17 140 0.0 1.6 0.00 0.00 0.00 73 1015.1
20260507051332 17 143 3.2 3.2 0.00 0.00 0.00 73 1015.1
20260507050828 17 166 1.6 3.2 0.00 0.00 0.00 73 1015.1
20260507050324 17 141 0.0 1.6 0.00 0.00 0.00 72 1015.1
20260507045822 17 138 3.2 3.2 0.00 0.00 0.00 72 1015.1
20260507045318 17 137 1.6 3.2 0.00 0.00 0.00 72 1015.1
20260507044815 17 142 1.6 3.2 0.00 0.00 0.00 72 1015.1
20260507044312 17 139 1.6 3.2 0.00 0.00 0.00 71 1015.1
20260507043808 17 168 3.2 4.8 0.00 0.00 0.00 71 1015.1
20260507043305 17 175 3.2 4.8 0.00 0.00 0.00 71 1015.1
20260507042801 17 167 1.6 3.2 0.00 0.00 0.00 71 1015.1
20260507042256 17 173 1.6 3.2 0.00 0.00 0.00 71 1015.1
20260507041754 17 162 1.6 3.2 0.00 0.00 0.00 71 1015.1
20260507041250 17 182 1.6 3.2 0.00 0.00 0.00 71 1014.7
20260507040747 17 176 3.2 4.8 0.00 0.00 0.00 71 1015.1
20260507040243 17 165 0.0 1.6 0.00 0.00 0.00 71 1015.1
20260507035739 17 177 1.6 3.2 0.00 0.00 0.00 71 1015.1
20260507035235 17 170 3.2 4.8 0.00 0.00 0.00 71 1014.7
20260507034733 17 190 3.2 8.0 0.00 0.00 0.00 70 1014.7
20260507034229 17 190 3.2 4.8 0.00 0.00 0.00 70 1014.7
20260507033728 17 182 4.8 8.0 0.00 0.00 0.00 70 1014.4
20260507033225 18 170 3.2 4.8 0.00 0.00 0.00 69 1014.7
20260507032722 18 160 3.2 3.2 0.00 0.00 0.00 69 1014.4
20260507032218 18 194 0.0 4.8 0.00 0.00 0.00 68 1014.7
20260507031715 18 211 4.8 8.0 0.00 0.00 0.00 68 1014.4
20260507031212 18 154 4.8 8.0 0.00 0.00 0.00 67 1014.4
20260507030708 18 171 6.4 8.0 0.00 0.00 0.00 67 1014.4
20260507030206 18 166 4.8 8.0 0.00 0.00 0.00 66 1014.0
20260507025703 18 215 1.6 3.2 0.00 0.00 0.00 67 1014.4
20260507025200 18 205 3.2 4.8 0.00 0.00 0.00 67 1014.4
20260507024658 18 176 6.4 8.0 0.00 0.00 0.00 67 1014.0
20260507024155 18 170 4.8 4.8 0.00 0.00 0.00 66 1014.4
20260507023650 18 193 4.8 9.7 0.00 0.00 0.00 66 1014.0
20260507023148 18 172 4.8 8.0 0.00 0.00 0.00 65 1014.0
20260507022645 19 202 3.2 9.7 0.00 0.00 0.00 65 1014.0
20260507022141 19 226 3.2 8.0 0.00 0.00 0.00 64 1013.7
20260507021637 19 214 1.6 8.0 0.00 0.00 0.00 63 1013.7
20260507021132 20 228 4.8 9.7 0.00 0.00 0.00 62 1013.7
20260507020631 20 250 8.0 9.7 0.00 0.00 0.00 60 1013.7
20260507020127 20 211 1.6 8.0 0.00 0.00 0.00 58 1013.7
20260507015626 20 221 6.4 11.3 0.00 0.00 0.00 59 1013.7
20260507015122 20 215 8.0 9.7 0.00 0.00 0.00 58 1013.7
20260507014619 20 219 3.2 8.0 0.00 0.00 0.00 57 1013.7
20260507014115 20 183 3.2 9.7 0.00 0.00 0.00 56 1013.7
20260507013612 20 220 1.6 8.0 0.00 0.00 0.00 55 1013.7
20260507013109 21 254 9.7 11.3 0.00 0.00 0.00 56 1013.7
20260507012606 21 227 1.6 8.0 0.00 0.00 0.00 57 1013.7
20260507012101 20 204 1.6 8.0 0.00 0.00 0.00 57 1013.7
20260507011600 21 228 11.3 12.9 0.00 0.00 0.00 59 1013.4
20260507011055 21 206 3.2 11.3 0.00 0.00 0.00 56 1013.4
20260507010550 21 237 4.8 11.3 0.00 0.00 0.00 56 1013.7
20260507010047 21 244 6.4 12.9 0.00 0.00 0.00 56 1013.4
20260507005544 21 216 9.7 11.3 0.00 0.00 0.00 55 1013.7
20260507005040 21 199 8.0 9.7 0.00 0.00 0.00 56 1013.7
20260507004538 22 202 4.8 11.3 0.00 0.00 0.00 55 1013.4
20260507004035 21 217 4.8 12.9 0.00 0.00 0.00 56 1013.0
20260507003531 21 217 6.4 9.7 0.00 0.00 0.00 54 1013.4
20260507003026 22 254 11.3 12.9 0.00 0.00 0.00 54 1013.4
20260507002523 22 210 4.8 11.3 0.00 0.00 0.00 54 1013.4
20260507002019 22 206 3.2 11.3 0.00 0.00 0.00 53 1013.0
20260507001515 22 187 6.4 11.3 0.00 0.00 0.00 54 1013.4
20260507001013 22 221 3.2 9.7 0.00 0.00 0.00 53 1013.4
20260507000509 22 204 8.0 11.3 0.00 0.00 0.00 52 1013.4
20260507000005 22 224 6.4 11.3 0.00 0.00 0.00 52 1013.4
20260506235502 22 224 8.0 14.5 0.00 0.00 0.00 53 1013.0
20260506234958 22 218 3.2 11.3 0.00 0.00 0.00 52 1013.4
20260506234455 22 196 8.0 14.5 0.00 0.00 0.00 52 1013.0
20260506233952 22 212 8.0 12.9 0.00 0.00 0.00 52 1013.4
20260506233449 22 214 8.0 12.9 0.00 0.00 0.00 52 1013.4
20260506232945 22 250 6.4 14.5 0.00 0.00 0.00 52 1013.4
20260506232442 22 242 8.0 11.3 0.00 0.00 0.00 51 1013.4
20260506231937 22 264 8.0 25.7 0.00 0.00 0.00 50 1013.4
20260506231436 22 245 12.9 16.1 0.00 0.00 0.00 50 1013.4
20260506230932 22 215 9.7 17.7 0.00 0.00 0.00 49 1013.4
20260506230428 22 203 6.4 12.9 0.00 0.00 0.00 46 1013.4
20260506225925 22 232 6.4 12.9 0.00 0.00 0.00 47 1013.4
20260506225423 22 177 6.4 9.7 0.00 0.00 0.00 45 1013.4
20260506224919 22 194 6.4 17.7 0.00 0.00 0.00 45 1013.7
20260506224417 22 213 9.7 16.1 0.00 0.00 0.00 45 1013.7
20260506223913 23 253 8.0 14.5 0.00 0.00 0.00 45 1013.7
20260506223408 23 219 11.3 14.5 0.00 0.00 0.00 44 1013.7
20260506222900 22 265 8.0 12.9 0.00 0.00 0.00 45 1013.7
20260506222356 23 220 3.2 12.9 0.00 0.00 0.00 46 1013.7
20260506221854 22 186 4.8 12.9 0.00 0.00 0.00 45 1014.0
20260506221351 22 248 3.2 11.3 0.00 0.00 0.00 46 1014.0
20260506220848 22 244 4.8 12.9 0.00 0.00 0.00 46 1014.0
20260506220343 22 228 4.8 14.5 0.00 0.00 0.00 47 1014.0
20260506215835 22 239 6.4 11.3 0.00 0.00 0.00 48 1014.0
20260506215330 22 278 8.0 11.3 0.00 0.00 0.00 48 1014.0
20260506214821 23 205 6.4 9.7 0.00 0.00 0.00 47 1014.4
20260506214317 22 246 6.4 11.3 0.00 0.00 0.00 49 1014.4
20260506213816 22 291 14.5 27.4 0.00 0.00 0.00 48 1014.4
20260506213313 22 228 4.8 12.9 0.00 0.00 0.00 49 1014.4
20260506212810 22 223 11.3 16.1 0.00 0.00 0.00 48 1014.4
20260506212307 22 182 4.8 11.3 0.00 0.00 0.00 51 1014.4
20260506211801 22 246 9.7 16.1 0.00 0.00 0.00 52 1014.4
20260506211257 22 248 1.6 9.7 0.00 0.00 0.00 51 1014.7
20260506210755 22 246 4.8 12.9 0.00 0.00 0.00 52 1014.4
20260506210251 22 210 8.0 11.3 0.00 0.00 0.00 51 1014.7
20260506205748 22 284 12.9 14.5 0.00 0.00 0.00 51 1014.7
20260506205244 22 253 8.0 14.5 0.00 0.00 0.00 53 1014.7
20260506204741 22 269 11.3 16.1 0.00 0.00 0.00 53 1014.7
20260506204239 22 279 11.3 14.5 0.00 0.00 0.00 52 1014.7
20260506203736 22 212 4.8 12.9 0.00 0.00 0.00 53 1014.7
20260506203233 22 239 6.4 11.3 0.00 0.00 0.00 51 1014.7
20260506202731 21 204 9.7 14.5 0.00 0.00 0.00 54 1014.7
20260506202227 21 171 8.0 12.9 0.00 0.00 0.00 55 1015.1
20260506201724 21 214 4.8 12.9 0.00 0.00 0.00 54 1015.1
20260506201220 22 205 9.7 16.1 0.00 0.00 0.00 54 1015.1
20260506200718 22 173 6.4 9.7 0.00 0.00 0.00 53 1015.1
20260506200214 22 111 3.2 12.9 0.00 0.00 0.00 53 1015.1
20260506195710 22 193 3.2 12.9 0.00 0.00 0.00 52 1015.1
20260506195207 21 195 3.2 12.9 0.00 0.00 0.00 55 1015.4
20260506194659 21 227 6.4 14.5 0.00 0.00 0.00 56 1015.4
20260506194155 21 221 8.0 12.9 0.00 0.00 0.00 56 1015.4
20260506193653 22 267 11.3 12.9 0.00 0.00 0.00 52 1015.4
20260506193150 21 237 1.6 11.3 0.00 0.00 0.00 55 1015.7
20260506192646 21 166 9.7 12.9 0.00 0.00 0.00 55 1015.4
20260506192142 21 215 0.0 8.0 0.00 0.00 0.00 55 1015.7
20260506191640 21 234 11.3 14.5 0.00 0.00 0.00 57 1015.7
20260506191135 21 183 3.2 9.7 0.00 0.00 0.00 58 1015.7
20260506190633 21 213 4.8 9.7 0.00 0.00 0.00 54 1015.7
20260506190130 20 256 6.4 14.5 0.00 0.00 0.00 57 1016.1
20260506185627 20 207 8.0 16.1 0.00 0.00 0.00 57 1015.7
20260506185123 21 244 4.8 17.7 0.00 0.00 0.00 57 1015.7
20260506184621 21 83 1.6 8.0 0.00 0.00 0.00 55 1015.7
20260506184118 21 169 0.0 4.8 0.00 0.00 0.00 54 1016.1
20260506183614 20 259 8.0 11.3 0.00 0.00 0.00 55 1016.1
20260506183110 21 254 8.0 12.9 0.00 0.00 0.00 55 1016.1
20260506182608 20 251 1.6 4.8 0.00 0.00 0.00 53 1016.1
20260506182105 21 247 6.4 8.0 0.00 0.00 0.00 53 1016.1
20260506181603 21 195 4.8 9.7 0.00 0.00 0.00 54 1016.1
20260506181059 20 121 6.4 9.7 0.00 0.00 0.00 53 1016.1
20260506180556 20 162 3.2 4.8 0.00 0.00 0.00 54 1016.4
20260506180053 20 223 3.2 12.9 0.00 0.00 0.00 56 1016.1
20260506175549 20 212 4.8 9.7 0.00 0.00 0.00 55 1016.1
20260506175045 20 193 0.0 3.2 0.00 0.00 0.00 52 1016.1
20260506174544 20 89 1.6 4.8 0.00 0.00 0.00 53 1016.1
20260506174040 20 229 0.0 3.2 0.00 0.00 0.00 54 1016.1
20260506173538 20 169 3.2 8.0 0.00 0.00 0.00 56 1016.1
20260506173034 20 199 4.8 9.7 0.00 0.00 0.00 55 1016.1
20260506172532 20 216 4.8 9.7 0.00 0.00 0.00 56 1016.1
20260506172028 19 176 4.8 9.7 0.00 0.00 0.00 56 1016.4
20260506171525 18 243 0.0 4.8 0.00 0.00 0.00 58 1016.4
20260506171023 18 318 8.0 9.7 0.00 0.00 0.00 58 1016.4
20260506170520 19 211 6.4 11.3 0.00 0.00 0.00 58 1016.4
20260506170017 18 187 0.0 3.2 0.00 0.00 0.00 58 1016.4
20260506165515 18 151 1.6 9.7 0.00 0.00 0.00 58 1016.4
20260506165006 18 157 4.8 8.0 0.00 0.00 0.00 58 1016.4
20260506164503 18 163 4.8 14.5 0.00 0.00 0.00 62 1016.4
20260506164001 18 150 8.0 11.3 0.00 0.00 0.00 61 1016.1
20260506163456 18 150 1.6 4.8 0.00 0.00 0.00 61 1016.4
20260506162950 18 142 0.0 4.8 0.00 0.00 0.00 60 1016.4
20260506162448 17 150 3.2 4.8 0.00 0.00 0.00 61 1016.4
20260506161940 18 198 1.6 4.8 0.00 0.00 0.00 63 1016.8
20260506161438 17 183 3.2 4.8 0.00 0.00 0.00 64 1016.4
20260506160935 18 157 6.4 8.0 0.00 0.00 0.00 62 1016.4
20260506160432 17 112 0.0 8.0 0.00 0.00 0.00 64 1016.4
20260506155929 17 186 4.8 8.0 0.00 0.00 0.00 64 1016.4
20260506155426 17 173 6.4 8.0 0.00 0.00 0.00 63 1016.8
20260506153548 17 147 0.0 1.6 0.00 0.00 0.00 66 1016.8
20260506153045 17 129 1.6 1.6 0.00 0.00 0.00 65 1016.4
20260506152542 16 127 1.6 1.6 0.00 0.00 0.00 67 1016.4
20260506152040 16 145 4.8 4.8 0.00 0.00 0.00 67 1016.4
20260506151538 16 126 4.8 4.8 0.00 0.00 0.00 68 1016.4
20260506151035 16 159 0.0 1.6 0.00 0.00 0.00 67 1016.4
20260506150531 16 126 1.6 1.6 0.00 0.00 0.00 67 1016.4
20260506150023 16 111 0.0 1.6 0.00 0.00 0.00 66 1016.4
20260506145519 16 117 1.6 3.2 0.00 0.00 0.00 67 1016.4
20260506145017 15 146 1.6 3.2 0.00 0.00 0.00 68 1016.1
20260506144513 15 160 1.6 3.2 0.00 0.00 0.00 68 1016.4
20260506144011 15 135 0.0 1.6 0.00 0.00 0.00 67 1016.4
20260506143509 14 152 0.0 1.6 0.00 0.00 0.00 69 1016.4
20260506143007 14 148 1.6 3.2 0.00 0.00 0.00 70 1016.4
20260506142504 14 151 1.6 1.6 0.00 0.00 0.00 70 1016.4
20260506142002 15 132 0.0 1.6 0.00 0.00 0.00 67 1016.4
20260506141500 14 134 0.0 0.0 0.00 0.00 0.00 68 1016.4
20260506140958 14 139 0.0 0.0 0.00 0.00 0.00 70 1016.4
20260506140455 13 155 0.0 0.0 0.00 0.00 0.00 72 1016.4
20260506135951 13 155 0.0 0.0 0.00 0.00 0.00 71 1016.1
20260506135449 13 155 0.0 0.0 0.00 0.00 0.00 74 1016.4
20260506134945 12 155 0.0 0.0 0.00 0.00 0.00 75 1016.4
20260506134441 12 155 0.0 0.0 0.00 0.00 0.00 74 1016.4
20260506133938 12 42 0.0 0.0 0.00 0.00 0.00 76 1016.4
20260506133435 11 42 0.0 0.0 0.00 0.00 0.00 80 1016.4
20260506132932 11 42 0.0 0.0 0.00 0.00 0.00 81 1016.1
20260506132429 11 42 0.0 0.0 0.00 0.00 0.00 81 1016.1
20260506131926 11 42 0.0 0.0 0.00 0.00 0.00 82 1015.7
20260506131423 11 42 0.0 0.0 0.00 0.00 0.00 83 1015.7
20260506130920 11 42 0.0 0.0 0.00 0.00 0.00 83 1016.1
20260506130416 11 43 0.0 0.0 0.00 0.00 0.00 84 1015.4
20260506125914 11 42 0.0 0.0 0.00 0.00 0.00 83 1015.7
20260506125412 11 43 0.0 0.0 0.00 0.00 0.00 84 1015.7
20260506124910 11 43 0.0 0.0 0.00 0.00 0.00 84 1015.7
20260506124407 11 43 0.0 0.0 0.00 0.00 0.00 85 1015.7
20260506123905 11 43 0.0 0.0 0.00 0.00 0.00 85 1015.7
20260506123403 11 43 0.0 0.0 0.00 0.00 0.00 86 1015.4
20260506122900 11 43 0.0 0.0 0.00 0.00 0.00 85 1015.7
20260506122356 11 43 0.0 0.0 0.00 0.00 0.00 84 1015.4
20260506121855 11 43 0.0 0.0 0.00 0.00 0.00 85 1015.4
20260506121352 11 43 0.0 0.0 0.00 0.00 0.00 85 1015.1
20260506120848 11 43 0.0 0.0 0.00 0.00 0.00 85 1015.1
20260506120346 11 43 0.0 0.0 0.00 0.00 0.00 85 1015.4
20260506115843 11 43 0.0 0.0 0.00 0.00 0.00 85 1015.4
20260506115342 11 43 0.0 0.0 0.00 0.00 0.00 85 1015.4
20260506114839 11 43 0.0 0.0 0.00 0.00 0.00 85 1015.4
20260506114337 11 43 0.0 0.0 0.00 0.00 0.00 86 1015.1
20260506113835 11 43 0.0 0.0 0.00 0.00 0.00 85 1015.1
20260506113332 11 43 0.0 0.0 0.00 0.00 0.00 86 1015.4
20260506112829 11 43 0.0 0.0 0.00 0.00 0.00 84 1015.1
20260506112326 11 43 0.0 0.0 0.00 0.00 0.00 84 1015.1
20260506111824 11 42 0.0 0.0 0.00 0.00 0.00 84 1015.1
20260506111322 11 42 0.0 0.0 0.00 0.00 0.00 84 1015.4
20260506110819 11 42 0.0 0.0 0.00 0.00 0.00 84 1015.1
20260506110316 11 42 0.0 0.0 0.00 0.00 0.00 84 1015.1
20260506105812 11 42 0.0 0.0 0.00 0.00 0.00 84 1015.1
20260506105309 12 42 0.0 0.0 0.00 0.00 0.00 84 1015.4
20260506104807 12 42 0.0 0.0 0.00 0.00 0.00 84 1015.1
20260506104304 12 42 0.0 0.0 0.00 0.00 0.00 83 1015.1
20260506103802 12 42 0.0 0.0 0.00 0.00 0.00 84 1015.4
20260506103259 12 42 0.0 0.0 0.00 0.00 0.00 84 1015.1
20260506102756 12 42 0.0 0.0 0.00 0.00 0.00 84 1015.4
20260506102254 12 41 0.0 0.0 0.00 0.00 0.00 84 1015.4
20260506101751 12 41 0.0 0.0 0.00 0.00 0.00 84 1015.4
20260506101247 12 42 0.0 1.6 0.00 0.00 0.00 85 1015.1
20260506100745 12 63 3.2 3.2 0.00 0.00 0.00 86 1015.1
20260506100243 12 77 0.0 0.0 0.00 0.00 0.00 86 1015.1
20260506095742 12 92 1.6 1.6 0.00 0.00 0.00 87 1015.1
20260506095238 12 157 0.0 0.0 0.00 0.00 0.00 87 1015.4
20260506094735 12 158 0.0 0.0 0.00 0.00 0.00 87 1015.4
20260506094233 12 158 0.0 0.0 0.00 0.00 0.00 87 1015.4
20260506093732 12 158 0.0 0.0 0.00 0.00 0.00 87 1015.4
20260506093228 12 158 0.0 0.0 0.00 0.00 0.00 87 1015.4
20260506092726 12 158 0.0 0.0 0.00 0.00 0.00 88 1015.4
20260506092224 12 158 0.0 0.0 0.00 0.00 0.00 87 1015.1
20260506091721 12 158 0.0 0.0 0.00 0.00 0.00 87 1015.4
20260506091218 12 158 0.0 0.0 0.00 0.00 0.00 87 1015.1
20260506090716 12 158 0.0 0.0 0.00 0.00 0.00 88 1015.4
20260506090212 12 158 0.0 0.0 0.00 0.00 0.00 88 1015.4